Location: Poughquag
(41.6090°N, 73.6820°W)
Time: 16:25:49
(UTC-05:00)

N. Korean satellite - Pass Details

Date: 22 January 2020
Orbit: 456 x 505 km, 97.2° (Epoch: 24 February)

Event Time Altitude Azimuth Distance (km) Brightness Sun altitude
Rises 05:09:52 0° 22° (NNE) 2,528 10.4 -23.3°
Reaches altitude 10° 05:12:06 10° 34° (NE) 1,653 9.6 -22.9°
Maximum altitude 05:15:16 30° 97° (E) 892 8.5 -22.3°
Drops below altitude 10° 05:18:27 10° 160° (SSE) 1,666 9.6 -21.7°
Sets 05:20:42 0° 171° (S) 2,551 10.4 -21.3°
